C/2004 H1 ( LINEAR )

Japanese version
Home page
Updated on May 9, 2004

---------------------------------------------------------------------

* Profile

Discovery Date April 16, 2004
Magnitude 19.2 mag
Discoverer Lincoln Laboratory Near-Earth Asteroid Research project

* Orbital Elements

T 2004 Jan. 14.999 TT                                   MPC
q   2.07570              (2000.0)            P               Q
                   Peri.  290.249       -0.802195       -0.237233
                   Node   120.014       +0.177685       +0.781238
e   1.0            Incl.  140.746       -0.570010       +0.577397
>From 70 observations 2004 Apr. 16-30.

* Finding Charts

* Magnitudes Graph

        m1 = -1.8 + 5 log d + 50 log r

---------------------------------------------------------------------

The orbital elements are published on M.P.E.C. 2004-J11.
The charts are made with StellaNavigator Ver.2.0 for Windows (AstroArts / ASCII).
The magnitudes graphs are made with Comet for Windows.

---------------------------------------------------------------------

Copyright(C) Seiichi Yoshida (comet@aerith.net). All rights reserved.